Location: Kaltenbach
(49.2000°N, 7.7500°E)
Time: 21:16:20
(UTC+00:00)

Cosmos 1269 Rocket - Pass Details

Date: 24 January 2020
Orbit: 773 x 779 km, 74.1° (Epoch: 16 February)

Event Time Altitude Azimuth Distance (km) Brightness Sun altitude
Rises 16:41:23 0° 337° (NNW) 3,263 7.3 -5.2°
Reaches altitude 10° 16:43:47 10° 340° (NNW) 2,332 6.5 -5.5°
Maximum altitude 16:49:05 74° 65° (ENE) 811 4.0 -6.3°
Drops below altitude 10° 16:54:21 10° 151° (SSE) 2,318 6.4 -7.1°
Sets 16:56:44 0° 153° (SSE) 3,242 7.2 -7.5°
